Location: Franzen
(48.6167°N, 15.3833°E)
Time: 13:05:34
(UTC+00:00)

Cosmos 1655 Rocket - Pass Details

Date: 31 July 2021
Orbit: 969 x 1007 km, 82.9° (Epoch: 25 September)

Event Time Altitude Azimuth Distance (km) Brightness Sun altitude
Exits shadow 19:40:30 11° 125° (SE) 2,676 5.6 -9.3°
Maximum altitude 19:44:47 22° 81° (E) 2,055 5.4 -9.9°
Drops below altitude 10° 19:49:26 10° 34° (NNE) 2,793 6.5 -10.4°
Sets 19:52:34 0° 20° (NNE) 3,750 7.4 -10.8°
